SCP
0 0 0 0 0 0 0 0 0 0 0 0 0 0 0 0 0 -0 -0 -0 -0 -0 -0 -0 -0 -0 -0 0 0 0 0 0 0 0 0 0 -0 -0 -0 -0 -0 -0 0 0
0 0 0 0 0 0 0 0 0 0 0 0 -0 0 0 0 -0 -0 -0 -0 -0 -0 -0 -0 -0 -0 -0 0 0 0 0 0 0 -0 -0 -0 -0 0 -0 -0 -0 -0 -0 -0
0 0 0 0 0 0 0 0 0 0 0 0 0 0 0 0 0 -0 -0 -0 -0 -0 -0 -0 -0 -0 -0 -0 -0 -0 -0 0 0 -0 -0 0 -0 0 -0 -0 0 -0 -0 -0
0 0 0 0 0 0 0 0 0 0 -0 -0 -0 -0 0 0 -0 -0 -0 -0 -0 -0 -0 -0 -0 -0 -0 -0 -0 -0 -0 0 0 0 -0 0 0 0 0 0 -0 0 -0 -0
0 0 0 0 0 0 0 0 0 0 0 -0 -0 -0 0 0 0 -0 -0 -0 -0 -0 -0 -0 -0 -0 -0 -0 -0 -0 -0 -0 -0 0 0 -0 0 0 0 0 0 0 0 0
0 0 0 0 0 0 0 0 0 0 0 0 -0 0 0 0 0 -0 0 -0 -0 -0 -0 -0 -0 -0 -0 -0 -0 -0 -0 0 -0 0 0 0 0 0 0 0 0 0 0 0
0 0 0 0 0 0 0 0 0 0 0 0 0 0 0 0 0 0 -0 -0 -0 -0 -0 -0 -0 -0 -0 -0 -0 -0 -0 0 0 -0 0 0 0 0 0 0 0 0 0 0
0 0 0 0 0 0 0 0 0 0 0 0 0 0 -0 -0 0 0 -0 -0 -0 -0 -0 -0 -0 -0 -0 -0 -0 -0 -0 -0 -0 0 0 0 0 0 0 0 0 0 0 0
0 0 0 0 0 0 0 0 0 0 0 0 0 0 0 0 0 0 -0 0 -0 -0 -0 -0 -0 -0 -0 0 -0 -0 -0 -0 -0 -0 0 -0 -0 -0 0 0 0 0 0 0
0 0 0 0 0 0 0 0 0 0 0 0 0 0 0 0 0 0 -0 -0 0 -0 -0 -0 -0 -0 -0 -0 -0 -0 -0 -0 -0 -0 -0 -0 0 0 0 0 0 0 0 0
0 0 0 0 0 0 0 0 0 0 0 0 0 0 0 0 0 0 0 -0 0 -0 -0 -0 -0 -0 -0 -0 -0 -0 -0 -0 -0 -0 -0 -0 0 0 0 0 0 0 0 0
0 0 0 0 0 0 0 0 0 0 0 0 0 0 0 0 0 0 0 0 0 0 0 -0 -0 -0 -0 -0 -0 -0 -0 -0 -0 -0 -0 0 0 -0 0 -0 -0 -0 -0 -0
0 0 0 0 0 0 0 0 0 0 0 0 0 0 0 0 0 0 0 0 0 0 -0 -0 -0 -0 -0 -0 -0 -0 -0 -0 -0 -0 0 0 0 -0 -0 -0 -0 -0 -0 0
0 0 0 0 0 0 0 0 0 0 0 0 0 0 0 0 0 0 0 0 0 0 0 0 0 -0 -0 -0 -0 -0 -0 0 0 0 0 -0 -0 -0 -0 -0 -0 -0 -0 -0
-0 0 0 0 0 0 0 0 0 0 0 0 0 0 0 0 0 0 0 0 0 0 0 0 0 0 -0 -0 -0 -0 -0 0 0 0 0 -0 -0 -0 -0 -0 -0 -0 -0 -0
0 0 0 -0 0 0 0 0 0 0 0 0 0 0 0 0 0 0 0 0 0 0 -0 0 0 0 0 0 0 0 0 0 0 0 0 0 -0 -0 -0 -0 -0 -0 -0 -0
0 0 0 0 -0 0 0 0 0 0 0 0 0 0 0 0 0 0 0 0 0 0 -0 0 0 0 0 0 0 0 0 0 0 0 0 0 0 0 -0 -0 -0 -0 0 0
0 0 0 0 0 0 0 0 0 0 0 0 0 0 0 0 0 0 0 0 0 0 0 0 0 0 0 0 0 0 0 0 0 0 0 0 0 0 0 0 -0 0 0 0
0 0 0 0 0 0 0 0 0 0 0 0 0 0 0 0 0 0 0 0 0 0 0 0 0 0 0 0 0 0 0 0 0 0 0 0 0 0 0 0 0 0 0 0
0 0 0 0 0 0 0 0 -0 0 0 0 0 0 0 0 0 0 0 0 0 0 0 0 0 0 0 0 0 0 0 0 0 0 0 0 0 0 0 0 0 0 0 0
-0 0 0 0 0 0 0 0 0 0 0 0 0 0 0 0 0 0 0 0 0 0 0 0 0 0 0 0 0 0 0 0 0 0 0 0 0 0 0 0 0 0 0 0
0 -0 0 0 0 0 0 0 0 0 0 0 0 0 0 0 0 0 0 0 0 0 0 0 0 0 0 0 0 0 0 0 0 0 0 0 0 0 0 0 0 0 0 0
0 0 -0 -0 0 0 0 0 0 0 0 0 0 0 0 0 0 0 0 0 0 0 0 0 0 0 0 0 0 0 0 0 0 0 0 0 0 0 0 0 0 0 0 0
-0 0 0 -0 -0 -0 0 0 0 0 0 0 0 0 0 0 0 0 0 0 0 0 0 0 0 0 0 0 0 0 0 0 0 0 -0 0 0 0 0 0 0 0 0 0
-0 0 0 0 0 -0 -0 -0 0 0 0 0 0 0 0 0 0 0 0 0 0 0 0 0 0 0 0 0 0 0 0 0 0 0 0 -0 -0 0 0 0 0 0 0 0
-0 -0 -0 -0 -0 -0 -0 -0 -0 0 0 0 0 0 0 0 0 0 0 0 0 0 0 0 0 0 0 0 0 0 0 0 0 0 0 0 0 0 0 0 0 0 0 0
-0 -0 -0 -0 -0 -0 -0 -0 -0 -0 -0 -0 0 0 0 0 0 0 0 0 0 0 0 0 0 0 0 0 0 0 0 0 0 0 0 0 0 0 0 0 0 0 0 0
Wind_Speed_500mb
27 22 17 9 47 47 42 31 25 18 47 40 33 11 4 13 30 33 43 49 53 58 56 54 51 46 38 36 32 27 21 18 12 9 9 16 20 21 23 25 25 26 27 26
17 20 16 15 13 22 52 46 37 25 27 25 28 18 8 19 38 43 46 47 51 57 58 57 54 50 42 40 36 30 24 20 15 14 18 24 24 23 25 25 26 27 26 22
14 6 10 21 27 18 19 41 41 43 54 22 28 25 18 22 43 51 51 54 61 66 67 61 57 52 46 44 39 33 28 23 22 18 23 28 25 23 21 22 23 23 22 19
3 1 21 3 21 22 29 7 14 35 20 14 27 49 50 33 46 54 49 52 59 65 68 61 56 52 45 45 42 36 32 28 30 24 25 28 25 21 19 20 20 17 13 13
5 11 6 10 19 11 3 9 20 16 20 24 31 35 45 30 46 64 71 62 63 66 67 62 60 56 51 47 46 41 37 34 38 31 29 30 26 21 18 19 19 16 10 12
6 10 14 9 24 9 3 13 23 21 20 24 30 17 22 26 13 33 45 59 61 64 67 63 61 60 57 52 52 48 41 37 42 35 33 29 24 20 18 20 22 22 19 20
12 3 6 25 25 12 18 7 31 28 27 26 15 24 53 50 34 18 37 47 60 66 73 69 65 64 62 57 57 52 44 40 41 38 34 30 27 22 18 23 24 27 28 31
5 7 8 36 8 7 12 19 27 30 29 36 39 51 51 46 42 23 36 54 64 68 73 72 67 66 66 63 54 53 48 44 40 42 39 35 30 28 23 23 25 29 30 32
4 6 15 23 7 16 16 23 30 33 37 36 43 44 44 43 37 26 35 52 63 72 76 77 71 67 68 62 59 57 53 49 44 42 42 38 37 32 30 24 25 29 32 32
6 6 21 17 17 25 29 32 36 37 38 37 42 44 43 39 33 31 37 54 66 67 80 84 77 67 59 62 62 61 58 52 50 45 47 44 39 33 32 30 29 31 32 33
5 12 19 7 31 40 45 41 47 46 42 39 41 44 40 40 32 28 38 50 69 80 89 89 84 72 68 63 67 66 61 56 55 51 47 46 44 39 37 33 28 30 34 34
5 13 15 31 38 47 44 50 52 54 57 51 46 49 45 39 33 29 43 50 67 79 78 87 87 81 73 68 68 69 67 62 60 58 53 49 48 43 41 37 31 25 20 27
14 32 39 47 42 25 48 45 50 49 47 49 53 52 44 40 32 31 42 49 64 81 85 89 90 88 77 72 73 72 70 70 65 61 59 55 51 49 46 42 39 35 31 26
32 28 25 21 35 48 47 44 44 43 41 43 49 53 50 40 31 28 45 54 57 66 83 82 89 84 77 74 75 74 70 68 69 69 65 61 57 52 44 43 46 45 42 38
19 26 32 46 49 38 42 44 45 44 48 50 50 52 57 52 33 15 24 36 45 59 75 77 78 79 76 78 79 78 79 73 70 68 68 65 59 56 50 43 41 39 46 45
33 34 34 34 41 40 40 43 42 43 46 50 53 50 53 49 39 22 16 26 49 65 78 80 79 77 73 75 79 81 79 75 71 67 68 68 67 61 54 53 50 45 48 49
30 34 34 37 42 44 41 41 40 41 44 45 48 48 50 50 42 29 9 29 36 50 67 83 82 78 76 76 77 82 82 82 78 73 69 68 70 70 65 59 57 56 55 52
31 34 35 34 41 44 47 42 42 44 40 42 46 48 46 46 44 42 29 13 27 40 50 59 75 78 74 75 75 82 82 82 83 84 79 73 73 71 70 66 64 61 58 59
32 35 33 31 33 37 43 44 39 47 45 45 44 47 44 40 39 35 31 19 13 13 30 44 56 63 69 70 71 75 79 82 82 83 81 78 77 73 73 73 71 67 63 59
44 52 43 31 31 32 39 42 41 41 44 48 44 42 39 35 34 31 28 24 11 11 19 30 39 45 53 57 55 63 69 74 77 78 80 80 81 82 82 75 73 72 70 68
42 56 49 39 41 39 39 43 41 39 41 40 47 42 37 35 33 31 23 20 10 11 18 20 33 43 49 53 57 55 54 59 61 67 69 70 71 71 77 83 82 80 77 77
42 45 52 50 48 53 50 41 37 39 37 37 45 47 38 33 32 26 22 16 15 13 17 27 29 28 33 39 46 53 53 44 39 49 58 65 67 68 67 76 76 73 74 75
46 45 39 45 54 53 52 49 35 32 33 37 39 48 46 34 27 29 26 23 19 17 22 28 22 30 35 24 38 44 43 54 52 68 62 55 53 59 64 68 63 59 58 60
49 46 46 52 52 53 55 52 41 34 29 34 42 46 45 47 39 38 34 36 33 29 26 33 35 35 37 35 40 48 50 61 76 97 83 59 53 53 65 69 66 56 55 55
46 46 40 50 56 57 53 53 54 47 32 26 34 41 46 46 49 45 44 37 34 34 36 33 40 47 50 50 55 63 65 62 64 62 61 76 57 48 68 75 68 66 62 57
35 40 33 38 45 52 58 61 47 46 71 44 40 42 44 49 51 53 59 51 43 40 41 42 37 47 54 45 49 54 61 67 62 51 46 58 76 66 61 68 65 63 63 63
28 32 33 35 39 40 51 60 55 41 53 58 38 31 36 48 51 59 60 59 55 49 49 50 41 36 30 36 46 48 44 33 28 52 46 43 51 52 55 58 51 58 58 55
Wind_Direction_500mb
284 277 280 171 198 200 202 207 213 204 224 237 267 295 50 185 166 177 174 173 177 177 182 182 178 178 176 177 178 176 175 168 163 133 117 132 134 130 132 130 130 133 138 139
255 236 248 250 200 214 212 223 233 247 251 237 274 290 235 186 175 188 185 177 178 182 185 183 181 180 177 178 179 178 176 169 156 129 124 134 128 130 132 129 131 130 136 140
222 338 286 250 223 201 202 227 226 228 240 256 280 273 250 197 189 198 186 180 183 186 187 186 185 182 180 179 179 181 180 172 161 144 133 132 128 129 130 131 134 137 137 145
254 246 226 192 40 230 217 160 257 241 255 318 294 295 288 261 210 200 193 183 186 188 189 188 186 183 181 181 180 184 183 175 164 150 138 140 132 123 126 139 142 142 142 152
216 202 82 49 23 347 324 118 16 334 322 319 317 308 280 251 225 212 198 199 193 190 189 186 187 183 183 182 183 187 189 181 174 163 146 141 133 123 121 136 146 130 123 150
189 217 201 20 338 324 160 170 4 349 335 330 331 244 251 15 342 242 219 197 190 188 189 187 186 184 186 186 187 189 192 187 180 177 173 161 147 136 126 136 143 131 117 118
228 270 116 353 333 176 188 38 339 337 327 317 294 280 301 310 312 279 216 204 190 188 189 186 185 185 188 190 191 187 190 194 190 185 178 174 166 153 136 142 145 142 131 126
212 224 168 358 9 82 352 333 337 333 327 314 301 297 297 297 291 291 209 201 194 189 189 187 188 188 190 195 189 188 189 194 194 189 184 179 174 169 156 153 148 151 153 142
289 32 341 344 23 41 357 333 338 337 330 321 311 306 302 295 284 264 213 204 200 188 188 190 191 193 194 193 189 188 189 195 196 194 192 188 183 180 176 167 168 157 159 161
316 40 326 328 42 15 359 345 340 340 337 331 317 315 306 296 282 250 213 201 202 193 188 190 192 195 198 191 188 189 189 196 198 198 196 196 195 194 197 188 180 180 170 167
297 330 333 228 356 347 345 349 344 340 343 343 331 321 310 298 282 245 216 202 202 199 194 193 190 194 198 194 190 191 192 198 201 201 199 200 203 205 204 203 198 191 191 187
336 320 293 298 318 328 334 337 338 338 340 346 346 331 320 301 283 247 212 205 205 204 202 197 195 196 200 196 195 194 193 197 201 204 203 203 206 205 209 207 204 200 195 204
303 298 292 291 304 323 328 331 335 334 337 339 349 345 333 314 290 253 215 209 207 207 203 201 200 198 200 200 199 199 198 197 199 204 206 205 204 204 202 203 209 211 208 201
315 327 308 315 313 319 325 328 333 334 338 342 347 352 349 337 314 253 216 216 214 206 203 205 203 201 202 204 203 204 204 205 200 201 208 210 211 209 205 204 204 208 209 216
316 312 299 305 311 317 320 329 333 337 338 340 345 350 355 355 344 309 230 221 211 200 203 204 203 202 203 205 205 205 206 207 206 206 209 212 214 216 215 213 212 213 215 211
317 322 316 306 307 315 320 325 330 332 335 332 337 343 349 354 351 326 227 209 210 206 205 205 206 206 206 207 206 208 210 211 208 208 209 211 215 220 221 222 223 219 224 220
309 313 315 316 315 314 316 316 316 318 326 327 329 333 341 346 359 357 295 211 217 225 215 210 209 209 208 209 207 208 211 214 211 213 213 213 215 217 222 225 228 230 233 232
320 295 294 292 300 308 308 308 310 315 320 322 321 323 329 338 348 2 350 273 227 220 218 218 216 214 211 211 209 210 211 215 215 216 217 216 218 220 222 226 230 233 234 238
337 313 310 303 303 302 301 302 300 306 309 313 319 319 320 325 335 347 358 328 264 220 212 214 215 219 218 213 212 212 214 216 217 217 220 223 224 225 228 231 234 237 240 241
353 355 346 330 316 315 305 299 295 294 300 301 309 314 309 309 319 327 352 347 299 253 202 197 198 209 217 217 211 212 215 219 221 221 223 227 228 230 232 234 236 238 239 241
359 4 0 354 339 330 317 308 297 284 284 292 298 304 297 296 303 315 324 345 322 230 201 172 191 200 202 205 206 206 210 217 220 223 224 227 233 235 239 240 240 239 240 242
351 1 9 6 2 359 352 328 302 291 281 282 283 292 288 279 286 291 308 316 312 292 244 226 207 158 158 176 193 202 204 207 238 246 235 234 234 236 238 245 243 244 243 242
356 355 350 357 5 359 354 354 336 304 285 275 272 277 288 276 266 272 286 294 315 296 276 254 245 221 224 236 199 184 196 203 254 277 260 252 251 251 247 242 243 246 240 236
2 2 5 10 6 3 3 7 352 341 306 292 279 273 276 284 257 252 279 281 298 293 288 263 248 239 235 232 231 223 214 207 216 230 254 254 246 262 259 248 239 233 235 234
8 8 6 16 14 12 8 8 14 7 345 325 303 281 271 268 272 259 263 265 281 285 281 280 262 240 240 239 237 231 233 225 222 228 246 252 270 256 260 248 240 242 240 239
11 11 1 9 12 12 13 12 360 4 14 345 307 289 279 269 268 263 266 268 269 281 281 279 273 247 238 245 235 233 232 236 245 248 238 240 246 246 244 244 235 241 240 240
12 13 7 9 11 7 14 17 11 7 14 8 340 315 290 277 268 264 262 261 266 270 272 275 269 254 243 220 212 216 204 188 220 224 237 247 243 230 230 232 228 233 229 231
Wind_Speed_850mb
27 22 17 9 47 47 42 31 25 18 47 40 33 11 4 13 30 33 43 49 53 58 56 54 51 46 38 36 32 27 21 18 12 9 9 16 20 21 23 25 25 26 27 26
17 20 16 15 13 22 52 46 37 25 27 25 28 18 8 19 38 43 46 47 51 57 58 57 54 50 42 40 36 30 24 20 15 14 18 24 24 23 25 25 26 27 26 22
14 6 10 21 27 18 19 41 41 43 54 22 28 25 18 22 43 51 51 54 61 66 67 61 57 52 46 44 39 33 28 23 22 18 23 28 25 23 21 22 23 23 22 19
3 1 21 3 21 22 29 7 14 35 20 14 27 49 50 33 46 54 49 52 59 65 68 61 56 52 45 45 42 36 32 28 30 24 25 28 25 21 19 20 20 17 13 13
5 11 6 10 19 11 3 9 20 16 20 24 31 35 45 30 46 64 71 62 63 66 67 62 60 56 51 47 46 41 37 34 38 31 29 30 26 21 18 19 19 16 10 12
6 10 14 9 24 9 3 13 23 21 20 24 30 17 22 26 13 33 45 59 61 64 67 63 61 60 57 52 52 48 41 37 42 35 33 29 24 20 18 20 22 22 19 20
12 3 6 25 25 12 18 7 31 28 27 26 15 24 53 50 34 18 37 47 60 66 73 69 65 64 62 57 57 52 44 40 41 38 34 30 27 22 18 23 24 27 28 31
5 7 8 36 8 7 12 19 27 30 29 36 39 51 51 46 42 23 36 54 64 68 73 72 67 66 66 63 54 53 48 44 40 42 39 35 30 28 23 23 25 29 30 32
4 6 15 23 7 16 16 23 30 33 37 36 43 44 44 43 37 26 35 52 63 72 76 77 71 67 68 62 59 57 53 49 44 42 42 38 37 32 30 24 25 29 32 32
6 6 21 17 17 25 29 32 36 37 38 37 42 44 43 39 33 31 37 54 66 67 80 84 77 67 59 62 62 61 58 52 50 45 47 44 39 33 32 30 29 31 32 33
5 12 19 7 31 40 45 41 47 46 42 39 41 44 40 40 32 28 38 50 69 80 89 89 84 72 68 63 67 66 61 56 55 51 47 46 44 39 37 33 28 30 34 34
5 13 15 31 38 47 44 50 52 54 57 51 46 49 45 39 33 29 43 50 67 79 78 87 87 81 73 68 68 69 67 62 60 58 53 49 48 43 41 37 31 25 20 27
14 32 39 47 42 25 48 45 50 49 47 49 53 52 44 40 32 31 42 49 64 81 85 89 90 88 77 72 73 72 70 70 65 61 59 55 51 49 46 42 39 35 31 26
32 28 25 21 35 48 47 44 44 43 41 43 49 53 50 40 31 28 45 54 57 66 83 82 89 84 77 74 75 74 70 68 69 69 65 61 57 52 44 43 46 45 42 38
19 26 32 46 49 38 42 44 45 44 48 50 50 52 57 52 33 15 24 36 45 59 75 77 78 79 76 78 79 78 79 73 70 68 68 65 59 56 50 43 41 39 46 45
33 34 34 34 41 40 40 43 42 43 46 50 53 50 53 49 39 22 16 26 49 65 78 80 79 77 73 75 79 81 79 75 71 67 68 68 67 61 54 53 50 45 48 49
30 34 34 37 42 44 41 41 40 41 44 45 48 48 50 50 42 29 9 29 36 50 67 83 82 78 76 76 77 82 82 82 78 73 69 68 70 70 65 59 57 56 55 52
31 34 35 34 41 44 47 42 42 44 40 42 46 48 46 46 44 42 29 13 27 40 50 59 75 78 74 75 75 82 82 82 83 84 79 73 73 71 70 66 64 61 58 59
32 35 33 31 33 37 43 44 39 47 45 45 44 47 44 40 39 35 31 19 13 13 30 44 56 63 69 70 71 75 79 82 82 83 81 78 77 73 73 73 71 67 63 59
44 52 43 31 31 32 39 42 41 41 44 48 44 42 39 35 34 31 28 24 11 11 19 30 39 45 53 57 55 63 69 74 77 78 80 80 81 82 82 75 73 72 70 68
42 56 49 39 41 39 39 43 41 39 41 40 47 42 37 35 33 31 23 20 10 11 18 20 33 43 49 53 57 55 54 59 61 67 69 70 71 71 77 83 82 80 77 77
42 45 52 50 48 53 50 41 37 39 37 37 45 47 38 33 32 26 22 16 15 13 17 27 29 28 33 39 46 53 53 44 39 49 58 65 67 68 67 76 76 73 74 75
46 45 39 45 54 53 52 49 35 32 33 37 39 48 46 34 27 29 26 23 19 17 22 28 22 30 35 24 38 44 43 54 52 68 62 55 53 59 64 68 63 59 58 60
49 46 46 52 52 53 55 52 41 34 29 34 42 46 45 47 39 38 34 36 33 29 26 33 35 35 37 35 40 48 50 61 76 97 83 59 53 53 65 69 66 56 55 55
46 46 40 50 56 57 53 53 54 47 32 26 34 41 46 46 49 45 44 37 34 34 36 33 40 47 50 50 55 63 65 62 64 62 61 76 57 48 68 75 68 66 62 57
35 40 33 38 45 52 58 61 47 46 71 44 40 42 44 49 51 53 59 51 43 40 41 42 37 47 54 45 49 54 61 67 62 51 46 58 76 66 61 68 65 63 63 63
28 32 33 35 39 40 51 60 55 41 53 58 38 31 36 48 51 59 60 59 55 49 49 50 41 36 30 36 46 48 44 33 28 52 46 43 51 52 55 58 51 58 58 55
Wind_Direction_850mb
284 277 280 171 198 200 202 207 213 204 224 237 267 295 50 185 166 177 174 173 177 177 182 182 178 178 176 177 178 176 175 168 163 133 117 132 134 130 132 130 130 133 138 139
255 236 248 250 200 214 212 223 233 247 251 237 274 290 235 186 175 188 185 177 178 182 185 183 181 180 177 178 179 178 176 169 156 129 124 134 128 130 132 129 131 130 136 140
222 338 286 250 223 201 202 227 226 228 240 256 280 273 250 197 189 198 186 180 183 186 187 186 185 182 180 179 179 181 180 172 161 144 133 132 128 129 130 131 134 137 137 145
254 246 226 192 40 230 217 160 257 241 255 318 294 295 288 261 210 200 193 183 186 188 189 188 186 183 181 181 180 184 183 175 164 150 138 140 132 123 126 139 142 142 142 152
216 202 82 49 23 347 324 118 16 334 322 319 317 308 280 251 225 212 198 199 193 190 189 186 187 183 183 182 183 187 189 181 174 163 146 141 133 123 121 136 146 130 123 150
189 217 201 20 338 324 160 170 4 349 335 330 331 244 251 15 342 242 219 197 190 188 189 187 186 184 186 186 187 189 192 187 180 177 173 161 147 136 126 136 143 131 117 118
228 270 116 353 333 176 188 38 339 337 327 317 294 280 301 310 312 279 216 204 190 188 189 186 185 185 188 190 191 187 190 194 190 185 178 174 166 153 136 142 145 142 131 126
212 224 168 358 9 82 352 333 337 333 327 314 301 297 297 297 291 291 209 201 194 189 189 187 188 188 190 195 189 188 189 194 194 189 184 179 174 169 156 153 148 151 153 142
289 32 341 344 23 41 357 333 338 337 330 321 311 306 302 295 284 264 213 204 200 188 188 190 191 193 194 193 189 188 189 195 196 194 192 188 183 180 176 167 168 157 159 161
316 40 326 328 42 15 359 345 340 340 337 331 317 315 306 296 282 250 213 201 202 193 188 190 192 195 198 191 188 189 189 196 198 198 196 196 195 194 197 188 180 180 170 167
297 330 333 228 356 347 345 349 344 340 343 343 331 321 310 298 282 245 216 202 202 199 194 193 190 194 198 194 190 191 192 198 201 201 199 200 203 205 204 203 198 191 191 187
336 320 293 298 318 328 334 337 338 338 340 346 346 331 320 301 283 247 212 205 205 204 202 197 195 196 200 196 195 194 193 197 201 204 203 203 206 205 209 207 204 200 195 204
303 298 292 291 304 323 328 331 335 334 337 339 349 345 333 314 290 253 215 209 207 207 203 201 200 198 200 200 199 199 198 197 199 204 206 205 204 204 202 203 209 211 208 201
315 327 308 315 313 319 325 328 333 334 338 342 347 352 349 337 314 253 216 216 214 206 203 205 203 201 202 204 203 204 204 205 200 201 208 210 211 209 205 204 204 208 209 216
316 312 299 305 311 317 320 329 333 337 338 340 345 350 355 355 344 309 230 221 211 200 203 204 203 202 203 205 205 205 206 207 206 206 209 212 214 216 215 213 212 213 215 211
317 322 316 306 307 315 320 325 330 332 335 332 337 343 349 354 351 326 227 209 210 206 205 205 206 206 206 207 206 208 210 211 208 208 209 211 215 220 221 222 223 219 224 220
309 313 315 316 315 314 316 316 316 318 326 327 329 333 341 346 359 357 295 211 217 225 215 210 209 209 208 209 207 208 211 214 211 213 213 213 215 217 222 225 228 230 233 232
320 295 294 292 300 308 308 308 310 315 320 322 321 323 329 338 348 2 350 273 227 220 218 218 216 214 211 211 209 210 211 215 215 216 217 216 218 220 222 226 230 233 234 238
337 313 310 303 303 302 301 302 300 306 309 313 319 319 320 325 335 347 358 328 264 220 212 214 215 219 218 213 212 212 214 216 217 217 220 223 224 225 228 231 234 237 240 241
353 355 346 330 316 315 305 299 295 294 300 301 309 314 309 309 319 327 352 347 299 253 202 197 198 209 217 217 211 212 215 219 221 221 223 227 228 230 232 234 236 238 239 241
359 4 0 354 339 330 317 308 297 284 284 292 298 304 297 296 303 315 324 345 322 230 201 172 191 200 202 205 206 206 210 217 220 223 224 227 233 235 239 240 240 239 240 242
351 1 9 6 2 359 352 328 302 291 281 282 283 292 288 279 286 291 308 316 312 292 244 226 207 158 158 176 193 202 204 207 238 246 235 234 234 236 238 245 243 244 243 242
356 355 350 357 5 359 354 354 336 304 285 275 272 277 288 276 266 272 286 294 315 296 276 254 245 221 224 236 199 184 196 203 254 277 260 252 251 251 247 242 243 246 240 236
2 2 5 10 6 3 3 7 352 341 306 292 279 273 276 284 257 252 279 281 298 293 288 263 248 239 235 232 231 223 214 207 216 230 254 254 246 262 259 248 239 233 235 234
8 8 6 16 14 12 8 8 14 7 345 325 303 281 271 268 272 259 263 265 281 285 281 280 262 240 240 239 237 231 233 225 222 228 246 252 270 256 260 248 240 242 240 239
11 11 1 9 12 12 13 12 360 4 14 345 307 289 279 269 268 263 266 268 269 281 281 279 273 247 238 245 235 233 232 236 245 248 238 240 246 246 244 244 235 241 240 240
12 13 7 9 11 7 14 17 11 7 14 8 340 315 290 277 268 264 262 261 266 270 272 275 269 254 243 220 212 216 204 188 220 224 237 247 243 230 230 232 228 233 229 231